Regional Weather Roundup
Issued by NWS

Home | Current Version | Previous Version | Text Only | Print | Product List | Glossary Off
Versions: 1 2 3 4 5 6 7 8 9 10 11 12 13 14 15 16 17 18 19 20 21 22 23 24 25 26 27 28 29 30 31 32 33 34 35 36 37 38 39 40 41 42 43 44 45 46 47 48 49 50

000
ASUS43 KFSD 191610
RWRSD

WEATHER ROUNDUP FOR SOUTH DAKOTA
NATIONAL WEATHER SERVICE SIOUX FALLS SD
1100 AM CDT SAT APR 19 2014

NOTE: "FAIR" INDICATES FEW OR NO CLOUDS BELOW 12,000 FEET WITH NO
SIGNIFICANT WEATHER AND/OR OBSTRUCTIONS TO VISIBILITY.


SDZ001>005-009-010-012>017-191700-
NORTHWEST AND NORTH CENTRAL SOUTH DAKOTA

CITY           SKY/WX    TMP DP  RH WIND       PRES   REMARKS
BUFFALO          N/A     53  21  28 W29       29.94R
FAITH            N/A     55  22  27 NW20      30.00R
MOBRIDGE       MOSUNNY   57  23  26 NW17      29.94R
$$

SDZ012>016-024>037-041>051-057-063-072>074-191700-
SOUTHWEST AND SOUTH CENTRAL SOUTH DAKOTA

CITY           SKY/WX    TMP DP  RH WIND       PRES   REMARKS
RAPID CTY ARPT SUNNY     56  14  19 NW7       30.03S
PIERRE         MOSUNNY   56  29  35 W10       30.01R
CUSTER         MOSUNNY   50  18  28 SE5       30.03S
ELLSWORTH AFB  SUNNY     56  15  19 N14       30.03R
PHILIP         MOSUNNY   59  19  21 NW10      30.03R
PINE RIDGE     PTSUNNY   54  15  21 NE10      30.05R
SPEARFISH      FAIR      50  16  25 NW10G17   30.05S
WINNER         FAIR      58  30  34 N12       30.03R
$$

SDZ004>011-016>023-039-040-191700-
NORTHEAST SOUTH DAKOTA

CITY           SKY/WX    TMP DP  RH WIND       PRES   REMARKS
ABERDEEN       MOSUNNY   58  30  34 W13       29.96R
WATERTOWN      CLOUDY    58  40  51 NW13      29.97R
SISSETON         N/A     59  38  45 NW16      29.92R
$$

SDZ017-020-022-023-036>040-048>070-191700-
SOUTHEAST SOUTH DAKOTA

CITY           SKY/WX    TMP DP  RH WIND       PRES   REMARKS
SIOUX FALLS    MOSUNNY   64  44  48 S20       29.96S
HURON          CLOUDY    59  36  42 NW17      29.98S
CHAMBERLAIN      N/A     58  33  39 N9        30.02R
MITCHELL       CLOUDY    58  39  49 NW15      30.00R
YANKTON        MOSUNNY   63  45  51 SW10G20   29.99S
$$

ABBREVIATIONS USED IN REMARKS
   TC - TEMPERATURE IN CELSIUS
  WCI - WIND CHILL INDEX
   HX - HEAT INDEX
  VSB - VISIBILITY




USA.gov is the U.S. government's official web portal to all federal, state and local government web resources and services.